owner,sensor,date,latitude,longitude,vertical_datum,direction_of_sea_water_velocity,sea_water_speed,upward_sea_water_velocity,qcFlag 
WAVCIS,ioos:station:WAVCIS:CSI10A:1,2019-03-02T01:06:06Z,28.9192,-90.7744,6.4,202.5,9.0,-99999.0,'11111222,11111222,99999999' 
WAVCIS,ioos:station:WAVCIS:CSI10A:1,2019-03-02T02:06:06Z,28.9192,-90.7744,6.4,207.897,10.4,-99999.0,'11111222,11111222,99999999' 
WAVCIS,ioos:station:WAVCIS:CSI10A:1,2019-03-02T03:06:06Z,28.9192,-90.7744,6.4,207.024,11.0,-99999.0,'11111222,11111222,99999999' 
WAVCIS,ioos:station:WAVCIS:CSI10A:1,2019-03-02T04:06:06Z,28.9192,-90.7744,6.4,206.151,11.6,-99999.0,'11111222,11111222,99999999' 
WAVCIS,ioos:station:WAVCIS:CSI10A:1,2019-03-02T05:06:06Z,28.9192,-90.7744,6.4,205.278,12.1,-99999.0,'11111222,11111222,99999999' 
WAVCIS,ioos:station:WAVCIS:CSI10A:1,2019-03-02T06:06:06Z,28.9192,-90.7744,6.4,204.404,12.7,-99999.0,'11111222,11111222,99999999' 
WAVCIS,ioos:station:WAVCIS:CSI10A:1,2019-03-02T07:06:06Z,28.9192,-90.7744,6.4,203.531,13.3,-99999.0,'11111222,11111222,99999999' 
WAVCIS,ioos:station:WAVCIS:CSI10A:1,2019-03-02T08:06:06Z,28.9192,-90.7744,6.4,202.658,13.9,-99999.0,'11111222,11111222,99999999' 
WAVCIS,ioos:station:WAVCIS:CSI10A:1,2019-03-02T09:06:06Z,28.9192,-90.7744,6.4,201.785,14.5,-99999.0,'11111222,11111222,99999999' 
WAVCIS,ioos:station:WAVCIS:CSI10A:1,2019-03-02T10:06:06Z,28.9192,-90.7744,6.4,200.489,15.7,-99999.0,'11111222,11111222,99999999' 
WAVCIS,ioos:station:WAVCIS:CSI10A:1,2019-03-02T11:06:06Z,28.9192,-90.7744,6.4,200.484,16.5,-99999.0,'11111222,11111222,99999999' 
WAVCIS,ioos:station:WAVCIS:CSI10A:1,2019-03-02T12:06:06Z,28.9192,-90.7744,6.4,206.099,19.5,-99999.0,'11111222,11111222,99999999' 
WAVCIS,ioos:station:WAVCIS:CSI10A:1,2019-03-02T13:06:06Z,28.9192,-90.7744,6.4,221.384,19.0,-99999.0,'11111222,11111222,99999999' 
WAVCIS,ioos:station:WAVCIS:CSI10A:1,2019-03-02T14:06:06Z,28.9192,-90.7744,6.4,228.488,15.7,-99999.0,'11111222,11111222,99999999' 
WAVCIS,ioos:station:WAVCIS:CSI10A:1,2019-03-02T15:06:06Z,28.9192,-90.7744,6.4,221.26,17.9,-99999.0,'11111222,11111222,99999999' 
WAVCIS,ioos:station:WAVCIS:CSI10A:1,2019-03-02T16:06:06Z,28.9192,-90.7744,6.4,224.991,20.6,-99999.0,'11111222,11111222,99999999' 
WAVCIS,ioos:station:WAVCIS:CSI10A:1,2019-03-02T17:06:06Z,28.9192,-90.7744,6.4,220.647,13.0,-99999.0,'11111222,11111222,99999999' 
WAVCIS,ioos:station:WAVCIS:CSI10A:1,2019-03-02T18:06:06Z,28.9192,-90.7744,6.4,216.068,7.3,-99999.0,'11111222,11111222,99999999' 
WAVCIS,ioos:station:WAVCIS:CSI10A:1,2019-03-02T19:06:06Z,28.9192,-90.7744,6.4,224.015,19.7,-99999.0,'11111222,11111222,99999999' 
WAVCIS,ioos:station:WAVCIS:CSI10A:1,2019-03-02T20:06:06Z,28.9192,-90.7744,6.4,214.101,17.4,-99999.0,'11111222,11111222,99999999' 
WAVCIS,ioos:station:WAVCIS:CSI10A:1,2019-03-02T21:06:06Z,28.9192,-90.7744,6.4,226.889,10.7,-99999.0,'11111222,11111222,99999999' 
WAVCIS,ioos:station:WAVCIS:CSI10A:1,2019-03-02T22:06:06Z,28.9192,-90.7744,6.4,221.988,14.6,-99999.0,'11111222,11111222,99999999' 
WAVCIS,ioos:station:WAVCIS:CSI10A:1,2019-03-02T23:06:06Z,28.9192,-90.7744,6.4,222.172,10.1,-99999.0,'11111222,11111222,99999999' 
WAVCIS,ioos:station:WAVCIS:CSI10A:1,2019-03-03T00:06:06Z,28.9192,-90.7744,6.4,231.893,10.6,-99999.0,'11111222,11111222,99999999' 
WAVCIS,ioos:station:WAVCIS:CSI10A:1,2019-03-03T01:06:06Z,28.9192,-90.7744,6.4,264.454,12.5,-99999.0,'11111222,11111222,99999999' 
WAVCIS,ioos:station:WAVCIS:CSI10A:1,2019-03-03T02:06:06Z,28.9192,-90.7744,6.4,247.366,8.3,-99999.0,'11111222,11111222,99999999' 
WAVCIS,ioos:station:WAVCIS:CSI10A:1,2019-03-03T03:06:06Z,28.9192,-90.7744,6.4,255.27,9.8,-99999.0,'11111222,11111222,99999999' 
WAVCIS,ioos:station:WAVCIS:CSI10A:1,2019-03-03T04:06:06Z,28.9192,-90.7744,6.4,283.986,18.3,-99999.0,'11111222,11111222,99999999' 
WAVCIS,ioos:station:WAVCIS:CSI10A:1,2019-03-03T05:06:06Z,28.9192,-90.7744,6.4,270.792,25.8,-99999.0,'11111222,11111222,99999999' 
WAVCIS,ioos:station:WAVCIS:CSI10A:1,2019-03-03T06:06:06Z,28.9192,-90.7744,6.4,269.066,19.4,-99999.0,'11111222,11111222,99999999' 
WAVCIS,ioos:station:WAVCIS:CSI10A:1,2019-03-03T07:06:06Z,28.9192,-90.7744,6.4,240.202,14.0,-99999.0,'11111222,11111222,99999999' 
WAVCIS,ioos:station:WAVCIS:CSI10A:1,2019-03-03T08:06:06Z,28.9192,-90.7744,6.4,239.794,15.5,-99999.0,'11111222,11111222,99999999' 
WAVCIS,ioos:station:WAVCIS:CSI10A:1,2019-03-03T09:06:06Z,28.9192,-90.7744,6.4,214.076,10.7,-99999.0,'11111222,11111222,99999999' 
WAVCIS,ioos:station:WAVCIS:CSI10A:1,2019-03-03T10:06:06Z,28.9192,-90.7744,6.4,238.154,12.1,-99999.0,'11111222,11111222,99999999' 
WAVCIS,ioos:station:WAVCIS:CSI10A:1,2019-03-03T11:06:06Z,28.9192,-90.7744,6.4,241.569,13.4,-99999.0,'11111222,11111222,99999999' 
WAVCIS,ioos:station:WAVCIS:CSI10A:1,2019-03-03T12:06:06Z,28.9192,-90.7744,6.4,269.196,11.6,-99999.0,'11111222,11111222,99999999' 
WAVCIS,ioos:station:WAVCIS:CSI10A:1,2019-03-03T13:06:06Z,28.9192,-90.7744,6.4,295.651,13.6,-99999.0,'11111222,11111222,99999999' 
WAVCIS,ioos:station:WAVCIS:CSI10A:1,2019-03-03T14:06:06Z,28.9192,-90.7744,6.4,300.479,14.1,-99999.0,'11111222,11111222,99999999' 
WAVCIS,ioos:station:WAVCIS:CSI10A:1,2019-03-03T15:06:06Z,28.9192,-90.7744,6.4,304.545,13.9,-99999.0,'11111222,11111222,99999999' 
WAVCIS,ioos:station:WAVCIS:CSI10A:1,2019-03-03T16:06:06Z,28.9192,-90.7744,6.4,319.212,15.6,-99999.0,'11111222,11111222,99999999' 
WAVCIS,ioos:station:WAVCIS:CSI10A:1,2019-03-03T17:06:06Z,28.9192,-90.7744,6.4,231.143,18.0,-99999.0,'11111222,11111222,99999999' 
WAVCIS,ioos:station:WAVCIS:CSI10A:1,2019-03-03T18:06:06Z,28.9192,-90.7744,6.4,113.39,20.5,-99999.0,'11111222,11111222,99999999' 
WAVCIS,ioos:station:WAVCIS:CSI10A:1,2019-03-03T19:06:06Z,28.9192,-90.7744,6.4,80.607,14.7,-99999.0,'11111222,11111222,99999999' 
WAVCIS,ioos:station:WAVCIS:CSI10A:1,2019-03-03T20:06:06Z,28.9192,-90.7744,6.4,102.806,24.2,-99999.0,'11111222,11111222,99999999' 
WAVCIS,ioos:station:WAVCIS:CSI10A:1,2019-03-03T21:06:06Z,28.9192,-90.7744,6.4,82.99,24.0,-99999.0,'11111222,11111222,99999999' 
WAVCIS,ioos:station:WAVCIS:CSI10A:1,2019-03-03T22:06:06Z,28.9192,-90.7744,6.4,108.986,23.0,-99999.0,'11111222,11111222,99999999' 
WAVCIS,ioos:station:WAVCIS:CSI10A:1,2019-03-03T23:06:06Z,28.9192,-90.7744,6.4,126.976,31.4,-99999.0,'11111222,11111222,99999999' 
WAVCIS,ioos:station:WAVCIS:CSI10A:1,2019-03-04T00:06:06Z,28.9192,-90.7744,6.4,166.119,28.7,-99999.0,'11111222,11111222,99999999' 
WAVCIS,ioos:station:WAVCIS:CSI10A:1,2019-03-04T01:06:06Z,28.9192,-90.7744,6.4,192.876,21.7,-99999.0,'11111222,11111222,99999999' 
WAVCIS,ioos:station:WAVCIS:CSI10A:1,2019-03-04T02:06:06Z,28.9192,-90.7744,6.4,204.956,18.2,-99999.0,'11111222,11111222,99999999' 
WAVCIS,ioos:station:WAVCIS:CSI10A:1,2019-03-04T03:06:06Z,28.9192,-90.7744,6.4,216.0,18.1,-99999.0,'11111222,11111222,99999999' 
WAVCIS,ioos:station:WAVCIS:CSI10A:1,2019-03-04T04:06:06Z,28.9192,-90.7744,6.4,210.012,15.2,-99999.0,'11111222,11111222,99999999' 
WAVCIS,ioos:station:WAVCIS:CSI10A:1,2019-03-04T05:06:06Z,28.9192,-90.7744,6.4,211.145,18.2,-99999.0,'11111222,11111222,99999999' 
WAVCIS,ioos:station:WAVCIS:CSI10A:1,2019-03-04T06:06:06Z,28.9192,-90.7744,6.4,204.147,29.9,-99999.0,'11111222,11111222,99999999' 
WAVCIS,ioos:station:WAVCIS:CSI10A:1,2019-03-04T07:06:06Z,28.9192,-90.7744,6.4,215.772,18.9,-99999.0,'11111222,11111222,99999999' 
WAVCIS,ioos:station:WAVCIS:CSI10A:1,2019-03-04T08:06:06Z,28.9192,-90.7744,6.4,201.0,22.5,-99999.0,'11111222,11111222,99999999' 
WAVCIS,ioos:station:WAVCIS:CSI10A:1,2019-03-04T09:06:06Z,28.9192,-90.7744,6.4,211.735,25.4,-99999.0,'11111222,11111222,99999999' 
WAVCIS,ioos:station:WAVCIS:CSI10A:1,2019-03-04T10:06:06Z,28.9192,-90.7744,6.4,210.9,20.7,-99999.0,'11111222,11111222,99999999' 
WAVCIS,ioos:station:WAVCIS:CSI10A:1,2019-03-04T11:06:06Z,28.9192,-90.7744,6.4,216.259,27.0,-99999.0,'11111222,11111222,99999999' 
WAVCIS,ioos:station:WAVCIS:CSI10A:1,2019-03-04T12:06:06Z,28.9192,-90.7744,6.4,216.673,20.2,-99999.0,'11111222,11111222,99999999' 
WAVCIS,ioos:station:WAVCIS:CSI10A:1,2019-03-04T13:06:06Z,28.9192,-90.7744,6.4,220.587,25.2,-99999.0,'11111222,11111222,99999999' 
WAVCIS,ioos:station:WAVCIS:CSI10A:1,2019-03-04T14:06:06Z,28.9192,-90.7744,6.4,214.374,21.5,-99999.0,'11111222,11111222,99999999' 
WAVCIS,ioos:station:WAVCIS:CSI10A:1,2019-03-04T15:06:06Z,28.9192,-90.7744,6.4,209.143,17.6,-99999.0,'11111222,11111222,99999999' 
WAVCIS,ioos:station:WAVCIS:CSI10A:1,2019-03-04T16:06:06Z,28.9192,-90.7744,6.4,222.469,15.1,-99999.0,'11111222,11111222,99999999' 
WAVCIS,ioos:station:WAVCIS:CSI10A:1,2019-03-04T17:06:06Z,28.9192,-90.7744,6.4,205.869,21.8,-99999.0,'11111222,11111222,99999999' 
WAVCIS,ioos:station:WAVCIS:CSI10A:1,2019-03-04T18:06:06Z,28.9192,-90.7744,6.4,210.115,18.2,-99999.0,'11111222,11111222,99999999' 
WAVCIS,ioos:station:WAVCIS:CSI10A:1,2019-03-04T19:06:06Z,28.9192,-90.7744,6.4,220.907,11.5,-99999.0,'11111222,11111222,99999999' 
WAVCIS,ioos:station:WAVCIS:CSI10A:1,2019-03-04T20:06:06Z,28.9192,-90.7744,6.4,203.781,12.1,-99999.0,'11111222,11111222,99999999' 
WAVCIS,ioos:station:WAVCIS:CSI10A:1,2019-03-04T21:06:06Z,28.9192,-90.7744,6.4,204.256,10.6,-99999.0,'11111222,11111222,99999999' 
WAVCIS,ioos:station:WAVCIS:CSI10A:1,2019-03-04T22:06:06Z,28.9192,-90.7744,6.4,191.085,11.6,-99999.0,'11111222,11111222,99999999' 
WAVCIS,ioos:station:WAVCIS:CSI10A:1,2019-03-04T23:06:06Z,28.9192,-90.7744,6.4,202.389,16.5,-99999.0,'11111222,11111222,99999999' 
WAVCIS,ioos:station:WAVCIS:CSI10A:1,2019-03-05T00:06:06Z,28.9192,-90.7744,6.4,199.522,18.5,-99999.0,'11111222,11111222,99999999' 
WAVCIS,ioos:station:WAVCIS:CSI10A:1,2019-03-05T01:06:06Z,28.9192,-90.7744,6.4,193.524,22.0,-99999.0,'11111222,11111222,99999999' 
WAVCIS,ioos:station:WAVCIS:CSI10A:1,2019-03-05T02:06:06Z,28.9192,-90.7744,6.4,205.237,23.4,-99999.0,'11111222,11111222,99999999' 
WAVCIS,ioos:station:WAVCIS:CSI10A:1,2019-03-05T03:06:06Z,28.9192,-90.7744,6.4,210.682,19.1,-99999.0,'11111222,11111222,99999999' 
WAVCIS,ioos:station:WAVCIS:CSI10A:1,2019-03-05T04:06:06Z,28.9192,-90.7744,6.4,206.678,21.1,-99999.0,'11111222,11111222,99999999' 
WAVCIS,ioos:station:WAVCIS:CSI10A:1,2019-03-05T05:06:06Z,28.9192,-90.7744,6.4,202.971,38.0,-99999.0,'11111222,11111222,99999999' 
WAVCIS,ioos:station:WAVCIS:CSI10A:1,2019-03-05T06:06:06Z,28.9192,-90.7744,6.4,209.4,26.8,-99999.0,'11111222,11111222,99999999' 
WAVCIS,ioos:station:WAVCIS:CSI10A:1,2019-03-05T07:06:06Z,28.9192,-90.7744,6.4,201.621,26.5,-99999.0,'11111222,11111222,99999999' 
WAVCIS,ioos:station:WAVCIS:CSI10A:1,2019-03-05T08:06:06Z,28.9192,-90.7744,6.4,208.5,27.0,-99999.0,'11111222,11111222,99999999' 
WAVCIS,ioos:station:WAVCIS:CSI10A:1,2019-03-05T09:06:06Z,28.9192,-90.7744,6.4,201.912,27.3,-99999.0,'11111222,11111222,99999999' 
WAVCIS,ioos:station:WAVCIS:CSI10A:1,2019-03-05T10:06:06Z,28.9192,-90.7744,6.4,201.12,25.5,-99999.0,'11111222,11111222,99999999' 
WAVCIS,ioos:station:WAVCIS:CSI10A:1,2019-03-05T11:06:06Z,28.9192,-90.7744,6.4,197.797,25.0,-99999.0,'11111222,11111222,99999999' 
WAVCIS,ioos:station:WAVCIS:CSI10A:1,2019-03-05T12:06:06Z,28.9192,-90.7744,6.4,214.545,20.5,-99999.0,'11111222,11111222,99999999' 
WAVCIS,ioos:station:WAVCIS:CSI10A:1,2019-03-05T13:06:06Z,28.9192,-90.7744,6.4,200.32,28.0,-99999.0,'11111222,11111222,99999999' 
WAVCIS,ioos:station:WAVCIS:CSI10A:1,2019-03-05T14:06:06Z,28.9192,-90.7744,6.4,206.201,23.5,-99999.0,'11111222,11111222,99999999' 
WAVCIS,ioos:station:WAVCIS:CSI10A:1,2019-03-05T15:06:06Z,28.9192,-90.7744,6.4,213.113,23.3,-99999.0,'11111222,11111222,99999999' 
WAVCIS,ioos:station:WAVCIS:CSI10A:1,2019-03-05T16:06:06Z,28.9192,-90.7744,6.4,213.959,28.2,-99999.0,'11111222,11111222,99999999' 
WAVCIS,ioos:station:WAVCIS:CSI10A:1,2019-03-05T17:06:06Z,28.9192,-90.7744,6.4,208.627,26.1,-99999.0,'11111222,11111222,99999999' 
WAVCIS,ioos:station:WAVCIS:CSI10A:1,2019-03-05T18:06:06Z,28.9192,-90.7744,6.4,208.156,20.9,-99999.0,'11111222,11111222,99999999' 
WAVCIS,ioos:station:WAVCIS:CSI10A:1,2019-03-05T19:06:06Z,28.9192,-90.7744,6.4,207.898,14.1,-99999.0,'11111222,11111222,99999999' 
WAVCIS,ioos:station:WAVCIS:CSI10A:1,2019-03-05T20:06:06Z,28.9192,-90.7744,6.4,195.105,12.9,-99999.0,'11111222,11111222,99999999' 
WAVCIS,ioos:station:WAVCIS:CSI10A:1,2019-03-05T21:06:06Z,28.9192,-90.7744,6.4,182.404,11.0,-99999.0,'11111222,11111222,99999999' 
WAVCIS,ioos:station:WAVCIS:CSI10A:1,2019-03-05T22:06:06Z,28.9192,-90.7744,6.4,186.0,9.2,-99999.0,'11111222,11111222,99999999' 
WAVCIS,ioos:station:WAVCIS:CSI10A:1,2019-03-05T23:06:06Z,28.9192,-90.7744,6.4,200.984,14.0,-99999.0,'11111222,11111222,99999999' 
WAVCIS,ioos:station:WAVCIS:CSI10A:1,2019-03-06T00:06:06Z,28.9192,-90.7744,6.4,208.186,20.5,-99999.0,'11111222,11111222,99999999' 
WAVCIS,ioos:station:WAVCIS:CSI10A:1,2019-03-06T01:06:06Z,28.9192,-90.7744,6.4,203.691,17.3,-99999.0,'11111222,11111222,99999999' 
WAVCIS,ioos:station:WAVCIS:CSI10A:1,2019-03-06T02:06:06Z,28.9192,-90.7744,6.4,194.88,19.5,-99999.0,'11111222,11111222,99999999' 
WAVCIS,ioos:station:WAVCIS:CSI10A:1,2019-03-06T03:06:06Z,28.9192,-90.7744,6.4,195.8,18.9,-99999.0,'11111222,11111222,99999999' 
WAVCIS,ioos:station:WAVCIS:CSI10A:1,2019-03-06T04:06:06Z,28.9192,-90.7744,6.4,196.344,18.1,-99999.0,'11111222,11111222,99999999' 
WAVCIS,ioos:station:WAVCIS:CSI10A:1,2019-03-06T05:06:06Z,28.9192,-90.7744,6.4,197.854,23.1,-99999.0,'11111222,11111222,99999999' 
WAVCIS,ioos:station:WAVCIS:CSI10A:1,2019-03-06T06:06:06Z,28.9192,-90.7744,6.4,201.5,21.5,-99999.0,'11111222,11111222,99999999' 
WAVCIS,ioos:station:WAVCIS:CSI10A:1,2019-03-06T07:06:06Z,28.9192,-90.7744,6.4,201.0,22.8,-99999.0,'11111222,11111222,99999999' 
WAVCIS,ioos:station:WAVCIS:CSI10A:1,2019-03-06T08:06:06Z,28.9192,-90.7744,6.4,203.342,30.7,-99999.0,'11111222,11111222,99999999' 
WAVCIS,ioos:station:WAVCIS:CSI10A:1,2019-03-06T09:06:06Z,28.9192,-90.7744,6.4,200.214,25.1,-99999.0,'11111222,11111222,99999999' 
WAVCIS,ioos:station:WAVCIS:CSI10A:1,2019-03-06T10:06:06Z,28.9192,-90.7744,6.4,205.004,18.5,-99999.0,'11111222,11111222,99999999' 
WAVCIS,ioos:station:WAVCIS:CSI10A:1,2019-03-06T11:06:06Z,28.9192,-90.7744,6.4,208.72,24.5,-99999.0,'11111222,11111222,99999999' 
WAVCIS,ioos:station:WAVCIS:CSI10A:1,2019-03-06T12:06:06Z,28.9192,-90.7744,6.4,207.494,25.3,-99999.0,'11111222,11111222,99999999' 
WAVCIS,ioos:station:WAVCIS:CSI10A:1,2019-03-06T13:06:06Z,28.9192,-90.7744,6.4,212.49,34.8,-99999.0,'11111222,11111222,99999999' 
WAVCIS,ioos:station:WAVCIS:CSI10A:1,2019-03-06T14:06:06Z,28.9192,-90.7744,6.4,204.175,35.4,-99999.0,'11111222,11111222,99999999' 
WAVCIS,ioos:station:WAVCIS:CSI10A:1,2019-03-06T15:06:06Z,28.9192,-90.7744,6.4,213.355,30.2,-99999.0,'11111222,11111222,99999999' 
WAVCIS,ioos:station:WAVCIS:CSI10A:1,2019-03-06T16:06:06Z,28.9192,-90.7744,6.4,217.076,22.3,-99999.0,'11111222,11111222,99999999' 
WAVCIS,ioos:station:WAVCIS:CSI10A:1,2019-03-06T17:06:06Z,28.9192,-90.7744,6.4,213.147,25.4,-99999.0,'11111222,11111222,99999999' 
WAVCIS,ioos:station:WAVCIS:CSI10A:1,2019-03-06T18:06:06Z,28.9192,-90.7744,6.4,216.431,21.8,-99999.0,'11111222,11111222,99999999' 
WAVCIS,ioos:station:WAVCIS:CSI10A:1,2019-03-06T19:06:06Z,28.9192,-90.7744,6.4,227.574,20.7,-99999.0,'11111222,11111222,99999999' 
WAVCIS,ioos:station:WAVCIS:CSI10A:1,2019-03-06T20:06:06Z,28.9192,-90.7744,6.4,216.478,18.9,-99999.0,'11111222,11111222,99999999' 
WAVCIS,ioos:station:WAVCIS:CSI10A:1,2019-03-06T21:06:06Z,28.9192,-90.7744,6.4,218.362,20.0,-99999.0,'11111222,11111222,99999999' 
WAVCIS,ioos:station:WAVCIS:CSI10A:1,2019-03-06T22:06:06Z,28.9192,-90.7744,6.4,220.563,13.5,-99999.0,'11111222,11111222,99999999' 
WAVCIS,ioos:station:WAVCIS:CSI10A:1,2019-03-06T23:06:06Z,28.9192,-90.7744,6.4,228.823,15.1,-99999.0,'11111222,11111222,99999999' 
WAVCIS,ioos:station:WAVCIS:CSI10A:1,2019-03-07T00:06:06Z,28.9192,-90.7744,6.4,221.029,14.6,-99999.0,'11111222,11111222,99999999' 
WAVCIS,ioos:station:WAVCIS:CSI10A:1,2019-03-07T01:06:06Z,28.9192,-90.7744,6.4,212.004,17.2,-99999.0,'11111222,11111222,99999999' 
WAVCIS,ioos:station:WAVCIS:CSI10A:1,2019-03-07T02:06:06Z,28.9192,-90.7744,6.4,210.481,22.8,-99999.0,'11111222,11111222,99999999' 
WAVCIS,ioos:station:WAVCIS:CSI10A:1,2019-03-07T03:06:06Z,28.9192,-90.7744,6.4,233.042,15.4,-99999.0,'11111222,11111222,99999999' 
WAVCIS,ioos:station:WAVCIS:CSI10A:1,2019-03-07T04:06:06Z,28.9192,-90.7744,6.4,233.296,13.1,-99999.0,'11111222,11111222,99999999' 
WAVCIS,ioos:station:WAVCIS:CSI10A:1,2019-03-07T05:06:06Z,28.9192,-90.7744,6.4,226.892,17.5,-99999.0,'11111222,11111222,99999999' 
WAVCIS,ioos:station:WAVCIS:CSI10A:1,2019-03-07T06:06:06Z,28.9192,-90.7744,6.4,236.38,19.6,-99999.0,'11111222,11111222,99999999' 
WAVCIS,ioos:station:WAVCIS:CSI10A:1,2019-03-07T07:06:06Z,28.9192,-90.7744,6.4,222.986,20.9,-99999.0,'11111222,11111222,99999999' 
WAVCIS,ioos:station:WAVCIS:CSI10A:1,2019-03-07T08:06:06Z,28.9192,-90.7744,6.4,232.891,12.5,-99999.0,'11111222,11111222,99999999' 
WAVCIS,ioos:station:WAVCIS:CSI10A:1,2019-03-07T09:06:06Z,28.9192,-90.7744,6.4,227.046,10.4,-99999.0,'11111222,11111222,99999999' 
WAVCIS,ioos:station:WAVCIS:CSI10A:1,2019-03-07T10:06:06Z,28.9192,-90.7744,6.4,206.871,10.2,-99999.0,'11111222,11111222,99999999' 
WAVCIS,ioos:station:WAVCIS:CSI10A:1,2019-03-07T11:06:06Z,28.9192,-90.7744,6.4,208.558,19.1,-99999.0,'11111222,11111222,99999999' 
WAVCIS,ioos:station:WAVCIS:CSI10A:1,2019-03-07T12:06:06Z,28.9192,-90.7744,6.4,215.966,21.0,-99999.0,'11111222,11111222,99999999' 
WAVCIS,ioos:station:WAVCIS:CSI10A:1,2019-03-07T13:06:06Z,28.9192,-90.7744,6.4,211.753,30.0,-99999.0,'11111222,11111222,99999999' 
WAVCIS,ioos:station:WAVCIS:CSI10A:1,2019-03-07T14:06:06Z,28.9192,-90.7744,6.4,225.715,27.0,-99999.0,'11111222,11111222,99999999' 
WAVCIS,ioos:station:WAVCIS:CSI10A:1,2019-03-07T15:06:06Z,28.9192,-90.7744,6.4,227.258,16.3,-99999.0,'11111222,11111222,99999999' 
WAVCIS,ioos:station:WAVCIS:CSI10A:1,2019-03-07T16:06:06Z,28.9192,-90.7744,6.4,224.465,22.0,-99999.0,'11111222,11111222,99999999' 
WAVCIS,ioos:station:WAVCIS:CSI10A:1,2019-03-07T17:06:06Z,28.9192,-90.7744,6.4,232.771,24.2,-99999.0,'11111222,11111222,99999999' 
WAVCIS,ioos:station:WAVCIS:CSI10A:1,2019-03-07T18:06:06Z,28.9192,-90.7744,6.4,222.229,20.9,-99999.0,'11111222,11111222,99999999' 
WAVCIS,ioos:station:WAVCIS:CSI10A:1,2019-03-07T19:06:06Z,28.9192,-90.7744,6.4,222.311,21.7,-99999.0,'11111222,11111222,99999999' 
WAVCIS,ioos:station:WAVCIS:CSI10A:1,2019-03-07T20:06:06Z,28.9192,-90.7744,6.4,227.418,16.4,-99999.0,'11111222,11111222,99999999' 
WAVCIS,ioos:station:WAVCIS:CSI10A:1,2019-03-07T21:06:06Z,28.9192,-90.7744,6.4,221.345,15.0,-99999.0,'11111222,11111222,99999999' 
WAVCIS,ioos:station:WAVCIS:CSI10A:1,2019-03-07T22:06:06Z,28.9192,-90.7744,6.4,229.051,15.0,-99999.0,'11111222,11111222,99999999' 
WAVCIS,ioos:station:WAVCIS:CSI10A:1,2019-03-07T23:06:06Z,28.9192,-90.7744,6.4,227.22,17.5,-99999.0,'11111222,11111222,99999999' 
WAVCIS,ioos:station:WAVCIS:CSI10A:1,2019-03-08T00:06:06Z,28.9192,-90.7744,6.4,239.908,13.2,-99999.0,'11111222,11111222,99999999' 
WAVCIS,ioos:station:WAVCIS:CSI10A:1,2019-03-08T01:06:06Z,28.9192,-90.7744,6.4,262.451,10.1,-99999.0,'11111222,11111222,99999999' 
WAVCIS,ioos:station:WAVCIS:CSI10A:1,2019-03-08T02:06:06Z,28.9192,-90.7744,6.4,253.888,13.5,-99999.0,'11111222,11111222,99999999' 
WAVCIS,ioos:station:WAVCIS:CSI10A:1,2019-03-08T03:06:06Z,28.9192,-90.7744,6.4,249.838,18.2,-99999.0,'11111222,11111222,99999999' 
WAVCIS,ioos:station:WAVCIS:CSI10A:1,2019-03-08T04:06:06Z,28.9192,-90.7744,6.4,284.804,10.6,-99999.0,'11111222,11111222,99999999' 
WAVCIS,ioos:station:WAVCIS:CSI10A:1,2019-03-08T05:06:06Z,28.9192,-90.7744,6.4,307.154,10.7,-99999.0,'11111222,11111222,99999999' 
WAVCIS,ioos:station:WAVCIS:CSI10A:1,2019-03-08T06:06:06Z,28.9192,-90.7744,6.4,312.87,11.5,-99999.0,'11111222,11111222,99999999' 
WAVCIS,ioos:station:WAVCIS:CSI10A:1,2019-03-08T07:06:06Z,28.9192,-90.7744,6.4,284.156,8.1,-99999.0,'11111222,11111222,99999999' 
WAVCIS,ioos:station:WAVCIS:CSI10A:1,2019-03-08T08:06:06Z,28.9192,-90.7744,6.4,245.887,7.1,-99999.0,'11111222,11111222,99999999' 
WAVCIS,ioos:station:WAVCIS:CSI10A:1,2019-03-08T09:06:06Z,28.9192,-90.7744,6.4,279.805,6.9,-99999.0,'11111222,11111222,99999999' 
WAVCIS,ioos:station:WAVCIS:CSI10A:1,2019-03-08T10:06:06Z,28.9192,-90.7744,6.4,276.464,2.5,-99999.0,'11133222,11111222,99999999' 
WAVCIS,ioos:station:WAVCIS:CSI10A:1,2019-03-08T11:06:06Z,28.9192,-90.7744,6.4,205.318,8.0,-99999.0,'11111222,11111222,99999999' 
WAVCIS,ioos:station:WAVCIS:CSI10A:1,2019-03-08T12:06:06Z,28.9192,-90.7744,6.4,220.74,3.9,-99999.0,'11111222,11111222,99999999' 
WAVCIS,ioos:station:WAVCIS:CSI10A:1,2019-03-08T13:06:06Z,28.9192,-90.7744,6.4,231.796,8.8,-99999.0,'11111222,11111222,99999999' 
WAVCIS,ioos:station:WAVCIS:CSI10A:1,2019-03-08T14:06:06Z,28.9192,-90.7744,6.4,207.659,14.6,-99999.0,'11111222,11111222,99999999' 
WAVCIS,ioos:station:WAVCIS:CSI10A:1,2019-03-08T15:06:06Z,28.9192,-90.7744,6.4,218.67,11.0,-99999.0,'11111222,11111222,99999999' 
WAVCIS,ioos:station:WAVCIS:CSI10A:1,2019-03-08T16:06:06Z,28.9192,-90.7744,6.4,232.1,15.7,-99999.0,'11111222,11111222,99999999' 
WAVCIS,ioos:station:WAVCIS:CSI10A:1,2019-03-08T17:06:06Z,28.9192,-90.7744,6.4,240.069,15.8,-99999.0,'11111222,11111222,99999999' 
WAVCIS,ioos:station:WAVCIS:CSI10A:1,2019-03-08T18:06:06Z,28.9192,-90.7744,6.4,223.302,10.3,-99999.0,'11111222,11111222,99999999' 
WAVCIS,ioos:station:WAVCIS:CSI10A:1,2019-03-08T19:06:06Z,28.9192,-90.7744,6.4,244.969,14.0,-99999.0,'11111222,11111222,99999999' 
WAVCIS,ioos:station:WAVCIS:CSI10A:1,2019-03-08T20:06:06Z,28.9192,-90.7744,6.4,231.02,13.0,-99999.0,'11111222,11111222,99999999' 
WAVCIS,ioos:station:WAVCIS:CSI10A:1,2019-03-08T21:06:06Z,28.9192,-90.7744,6.4,268.312,10.3,-99999.0,'11111222,11111222,99999999' 
WAVCIS,ioos:station:WAVCIS:CSI10A:1,2019-03-08T22:06:06Z,28.9192,-90.7744,6.4,241.502,12.7,-99999.0,'11111222,11111222,99999999' 
WAVCIS,ioos:station:WAVCIS:CSI10A:1,2019-03-08T23:06:06Z,28.9192,-90.7744,6.4,218.246,18.7,-99999.0,'11111222,11111222,99999999' 
WAVCIS,ioos:station:WAVCIS:CSI10A:1,2019-03-09T00:06:06Z,28.9192,-90.7744,6.4,222.76,16.9,-99999.0,'11111222,11111222,99999999' 
WAVCIS,ioos:station:WAVCIS:CSI10A:1,2019-03-09T01:06:06Z,28.9192,-90.7744,6.4,232.31,16.6,-99999.0,'11111222,11111222,99999999' 
WAVCIS,ioos:station:WAVCIS:CSI10A:1,2019-03-09T02:06:06Z,28.9192,-90.7744,6.4,232.109,18.5,-99999.0,'11111222,11111222,99999999' 
WAVCIS,ioos:station:WAVCIS:CSI10A:1,2019-03-09T03:06:06Z,28.9192,-90.7744,6.4,230.129,21.3,-99999.0,'11111222,11111222,99999999' 
WAVCIS,ioos:station:WAVCIS:CSI10A:1,2019-03-09T04:06:06Z,28.9192,-90.7744,6.4,255.253,19.6,-99999.0,'11111222,11111222,99999999' 
WAVCIS,ioos:station:WAVCIS:CSI10A:1,2019-03-09T05:06:06Z,28.9192,-90.7744,6.4,237.757,21.5,-99999.0,'11111222,11111222,99999999' 
WAVCIS,ioos:station:WAVCIS:CSI10A:1,2019-03-09T06:06:06Z,28.9192,-90.7744,6.4,234.867,24.5,-99999.0,'11111222,11111222,99999999' 
WAVCIS,ioos:station:WAVCIS:CSI10A:1,2019-03-09T07:06:06Z,28.9192,-90.7744,6.4,251.293,20.2,-99999.0,'11111222,11111222,99999999' 
WAVCIS,ioos:station:WAVCIS:CSI10A:1,2019-03-09T08:06:06Z,28.9192,-90.7744,6.4,261.146,12.3,-99999.0,'11111222,11111222,99999999' 
WAVCIS,ioos:station:WAVCIS:CSI10A:1,2019-03-09T09:06:06Z,28.9192,-90.7744,6.4,249.139,14.9,-99999.0,'11111222,11111222,99999999' 
WAVCIS,ioos:station:WAVCIS:CSI10A:1,2019-03-09T10:06:06Z,28.9192,-90.7744,6.4,253.956,8.3,-99999.0,'11111222,11111222,99999999' 
WAVCIS,ioos:station:WAVCIS:CSI10A:1,2019-03-09T11:06:06Z,28.9192,-90.7744,6.4,232.666,5.0,-99999.0,'11111222,11111222,99999999' 
WAVCIS,ioos:station:WAVCIS:CSI10A:1,2019-03-09T12:06:06Z,28.9192,-90.7744,6.4,261.285,6.1,-99999.0,'11111222,11111222,99999999' 
WAVCIS,ioos:station:WAVCIS:CSI10A:1,2019-03-09T13:06:06Z,28.9192,-90.7744,6.4,249.459,7.7,-99999.0,'11111222,11111222,99999999' 
WAVCIS,ioos:station:WAVCIS:CSI10A:1,2019-03-09T14:06:06Z,28.9192,-90.7744,6.4,213.907,9.4,-99999.0,'11111222,11111222,99999999' 
WAVCIS,ioos:station:WAVCIS:CSI10A:1,2019-03-09T15:06:06Z,28.9192,-90.7744,6.4,201.626,8.8,-99999.0,'11111222,11111222,99999999' 
WAVCIS,ioos:station:WAVCIS:CSI10A:1,2019-03-09T16:06:06Z,28.9192,-90.7744,6.4,196.671,14.2,-99999.0,'11111222,11111222,99999999' 